Location: Spruce Knob
(38.6995°N, 79.5330°W)
Time: 20:10:00
(UTC-04:00)

A-11 Canister half - Pass Details

Date: 06 February 2022
Orbit: 1513 x 1686 km, 47.2° (Epoch: 26 May)

Event Time Altitude Azimuth Distance (km) Brightness Sun altitude
Rises 15:37:18 0° 268° (W) 4,829 12.4 20.7°
Reaches altitude 10° 15:40:35 10° 273° (W) 3,820 11.9 20.2°
Maximum altitude 15:50:02 54° 349° (N) 1,841 9.5 18.8°
Drops below altitude 10° 15:59:10 10° 66° (ENE) 3,701 10.5 17.4°
Sets 16:02:18 0° 71° (ENE) 4,670 11.0 17.0°
